Location: Aufkirchen
(47.9603°N, 11.3653°E)
Time: 07:12:25
(UTC+01:00)

Transit 4A - Pass Details

Date: 02 December 2020
Orbit: 864 x 980 km, 66.8° (Epoch: 25 January)

Event Time Altitude Azimuth Distance (km) Brightness Sun altitude
Rises 05:48:18 0° 157° (SSE) 3,620 11.5 -18.7°
Reaches altitude 10° 05:51:56 10° 136° (SE) 2,698 11.2 -18.1°
Maximum altitude 05:55:25 15° 102° (ESE) 2,338 11.1 -17.6°
Drops below altitude 10° 05:58:56 10° 68° (ENE) 2,731 11.1 -17.0°
Sets 06:02:38 0° 47° (NE) 3,690 11.5 -16.4°
